Terminal Aerodrome Forecast
Issued by NWS

Home | Current Version | Previous Version | Graphics & Text | Print | Product List | Glossary On
Versions: 1 2 3 4 5 6 7 8 9 10 11 12 13 14 15 16 17 18 19
000
FTUS43 KBIS 292100 AAA
TAFDIK
TAF AMD
KDIK 292146Z 2922/3018 11015KT 6SM -SHRA OVC007
      TEMPO 2922/3001 2SM SHRA OVC005
     FM300600 12011KT 3SM SHRA OVC003
     FM301200 11011KT 6SM -SHRA OVC003=

USA.gov is the U.S. government's official web portal to all federal, state and local government web resources and services.